Location: Bohy
(49.9380°N, 13.5753°E)
Time: 01:57:08
(UTC+00:00)

Cosmos 1470 - Pass Details

Date: 19 May 2025
Orbit: 454 x 466 km, 82.5° (Epoch: 23 June)

Event Time Altitude Azimuth Distance (km) Brightness Sun altitude
Rises 23:05:12 0° 341° (NNW) 2,519 7.5 -20.1°
Reaches altitude 10° 23:07:25 10° 332° (NNW) 1,638 6.1 -20.1°
Maximum altitude 23:10:37 32° 268° (W) 838 3.7 -20.1°
Enters shadow 23:10:48 31° 262° (W) 841 3.6 -20.1°
